This demonstration page uses our WeatherBlox Daily Observations layout. Learn more.

Hourly Observations for June 15, 2019

Temp ( °F °C ) Dew Point ( °F °C ) Humidity (%) Winds ( mph kmh ) Pressure ( in mb ) Visibility ( mi km ) Precip ( " mm )
12:15 am 00:15 Cloudy 69 20.7 65 18.6 88 88 Calm 29.59 1002 10 16.09344 0 0
12:35 am 00:35 Cloudy with Nearby Thunderstorms 75 23.7 60 15.8 61 61 WSW 16 26 29.62 1003 10 16.09344 0 0
12:55 am 00:55 Cloudy 73 22.7 60 15.3 63 63 W 17 28 29.62 1003 10 16.09344 0 0
1:15 am 01:15 Partly Cloudy 71 21.5 62 16.4 73 73 W 15 24 29.62 1003 10 16.09344 0 0
1:35 am 01:35 Clear 71 21.5 60 15.8 70 70 W 9 15 29.59 1002 10 16.09344 0 0
1:55 am 01:55 Clear 70 21.2 60 15.7 71 71 WNW 7 11 29.59 1002 10 16.09344 0 0
2:15 am 02:15 Clear 69 20.7 61 15.9 74 74 NW 6 9 29.59 1002 10 16.09344 0 0
2:35 am 02:35 Clear 69 20.3 61 16 76 76 SSW 6 9 29.59 1002 10 16.09344 0 0
2:55 am 02:55 Clear 67 19.4 61 16.2 82 82 Calm 29.62 1003 10 16.09344 0 0
3:15 am 03:15 Clear 67 19.5 61 16.3 82 82 SSW 5 7 29.65 1004 10 16.09344 0 0
3:35 am 03:35 Clear 65 18.6 62 16.4 87 87 SW 3 6 29.65 1004 10 16.09344 0 0
3:55 am 03:55 Partly Cloudy 65 18.6 62 16.4 87 87 SW 7 11 29.65 1004 10 16.09344 0 0
4:15 am 04:15 Clear 65 18.2 62 16.6 90 90 SW 5 7 29.65 1004 10 16.09344 0 0
4:35 am 04:35 Partly Cloudy 64 17.7 62 16.5 93 93 SW 7 11 29.65 1004 10 16.09344 0 0
4:55 am 04:55 Mostly Cloudy 64 17.8 62 16.5 92 92 SW 3 6 29.65 1004 10 16.09344 0 0
5:15 am 05:15 Partly Cloudy 64 17.5 62 16.5 94 94 SW 5 7 29.65 1004 10 16.09344 0 0
5:35 am 05:35 Clear 64 17.5 62 16.5 94 94 SW 7 11 29.65 1004 10 16.09344 0 0
5:55 am 05:55 Clear with Nearby Thunderstorms 64 17.5 61 16 91 91 W 15 24 29.65 1004 10 16.09344 0 0
6:15 am 06:15 Sunny 63 17.1 60 15.8 92 92 W 10 17 29.68 1005 10 16.09344 0 0
6:35 am 06:35 Sunny 64 17.6 61 16 90 90 WNW 10 17 29.68 1005 10 16.09344 0 0
6:55 am 06:55 Sunny 64 18 61 16.3 90 90 NW 12 19 29.68 1005 10 16.09344 0 0
7:15 am 07:15 Sunny 65 18.4 62 16.6 89 89 NW 9 15 29.68 1005 10 16.09344 0 0
7:35 am 07:35 Sunny 66 19.1 63 17 88 88 NNW 12 19 29.71 1006 10 16.09344 0 0
7:55 am 07:55 Sunny 67 19.3 64 17.5 89 89 N 10 17 29.71 1006 10 16.09344 0 0
8:15 am 08:15 Sunny 67 19.5 64 17.7 89 89 N 9 15 29.71 1006 10 16.09344 0 0
8:35 am 08:35 Sunny 68 19.9 63 17.1 84 84 N 10 17 29.71 1006 10 16.09344 0 0
8:55 am 08:55 Sunny 68 20 62 16.9 82 82 N 10 17 29.71 1006 10 16.09344 0 0
9:15 am 09:15 Sunny 70 20.9 64 17.5 81 81 N 12 19 29.71 1006 10 16.09344 0 0
9:35 am 09:35 Sunny 70 21.2 63 17.2 78 78 N 8 13 29.68 1005 10 16.09344 0 0
9:55 am 09:55 Sunny 72 22.1 63 17 73 73 N 8 13 29.68 1005 10 16.09344 0 0
10:15 am 10:15 Sunny 73 22.5 64 17.5 73 73 N 13 20 29.71 1006 10 16.09344 0 0
10:35 am 10:35 Sunny 73 22.7 63 17.4 72 72 N 13 20 29.71 1006 10 16.09344 0 0
10:55 am 10:55 Sunny 74 23.3 62 16.9 67 67 N 12 19 29.71 1006 10 16.09344 0 0
11:15 am 11:15 Sunny 75 23.8 62 16.5 64 64 N 16 26 29.74 1007 10 16.09344 0 0
11:35 am 11:35 Partly Cloudy 76 24.5 61 16.1 60 60 N 16 26 29.74 1007 10 16.09344 0 0
11:55 am 11:55 Partly Cloudy 76 24.5 63 17 63 63 N 10 17 29.74 1007 10 16.09344 0 0
12:15 pm 12:15 Partly Cloudy 76 24.5 62 16.4 61 61 N 14 22 29.74 1007 10 16.09344 0 0
12:35 pm 12:35 Sunny 77 25 61 15.9 57 57 NNE 9 15 29.77 1008 10 16.09344 0 0
12:55 pm 12:55 Sunny 77 25.1 60 15.3 55 55 N 10 17 29.77 1008 10 16.09344 0 0
1:15 pm 13:15 Sunny 78 25.6 59 15 52 52 N 10 17 29.74 1007 10 16.09344 0 0
1:35 pm 13:35 Sunny 78 25.8 58 14.5 50 50 N 8 13 29.74 1007 10 16.09344 0 0
1:55 pm 13:55 Sunny 79 26.2 59 15.2 51 51 NNE 10 17 29.74 1007 10 16.09344 0 0
2:15 pm 14:15 Partly Cloudy 80 26.4 61 15.9 53 53 N 12 19 29.74 1007 10 16.09344 0 0
2:35 pm 14:35 Sunny 79 26.3 60 15.7 52 52 N 5 7 29.71 1006 10 16.09344 0 0
2:55 pm 14:55 Sunny 80 26.5 59 14.8 49 49 N 8 13 29.74 1007 10 16.09344 0 0
3:15 pm 15:15 Sunny 80 26.5 58 14.7 48 48 N 14 22 29.74 1007 10 16.09344 0 0
3:35 pm 15:35 Sunny 80 26.6 58 14.2 47 47 N 8 13 29.74 1007 10 16.09344 0 0
3:55 pm 15:55 Sunny 81 27 59 15.2 48 48 NNE 7 11 29.74 1007 10 16.09344 0 0
4:15 pm 16:15 Sunny 81 27 59 14.8 47 47 N 9 15 29.71 1006 10 16.09344 0 0
4:35 pm 16:35 Sunny 81 27.2 60 15.3 48 48 WNW 7 11 29.71 1006 10 16.09344 0 0
4:55 pm 16:55 Sunny 82 27.5 60 15.5 48 48 NNW 8 13 29.71 1006 10 16.09344 0 0
5:15 pm 17:15 Sunny 82 27.6 59 14.9 46 46 NNW 9 15 29.71 1006 10 16.09344 0 0
5:35 pm 17:35 Sunny 82 27.8 57 14.1 43 43 NNW 7 11 29.71 1006 10 16.09344 0 0
5:55 pm 17:55 Sunny 82 27.7 56 13.4 41 41 N 7 11 29.71 1006 10 16.09344 0 0
6:15 pm 18:15 Sunny 82 27.7 57 13.8 42 42 NNW 10 17 29.71 1006 10 16.09344 0 0
6:35 pm 18:35 Sunny 82 27.7 56 13.2 41 41 NNW 5 7 29.71 1006 10 16.09344 0 0
6:55 pm 18:55 Sunny 81 27.4 57 14 44 44 NNW 8 13 29.71 1006 10 16.09344 0 0
7:15 pm 19:15 Sunny 81 27.2 56 13.4 43 43 N 5 7 29.71 1006 10 16.09344 0 0
7:35 pm 19:35 Sunny 80 26.8 56 13.6 44 44 Calm 29.71 1006 10 16.09344 0 0
7:55 pm 19:55 Sunny 79 26.2 55 12.9 44 44 NNE 6 9 29.71 1006 10 16.09344 0 0
8:15 pm 20:15 Sunny 78 25.7 58 14.4 50 50 Calm 29.74 1007 10 16.09344 0 0
8:35 pm 20:35 Sunny 77 25 58 14.6 53 53 NNE 5 7 29.77 1008 10 16.09344 0 0
8:55 pm 20:55 Sunny 75 23.8 60 15.4 59 59 NE 6 9 29.77 1008 10 16.09344 0 0
9:15 pm 21:15 Clear 72 22.4 61 15.9 67 67 NNE 7 11 29.77 1008 10 16.09344 0 0
9:35 pm 21:35 Clear 71 21.8 59 15.2 66 66 NNE 6 9 29.83 1010 10 16.09344 0 0
9:55 pm 21:55 Clear 70 21 59 15.2 70 70 NNE 3 6 29.83 1010 10 16.09344 0 0
10:15 pm 22:15 Clear 69 20.5 59 15.1 71 71 NNE 5 7 29.83 1010 10 16.09344 0 0
10:35 pm 22:35 Clear 67 19.7 59 15.1 75 75 NNE 5 7 29.83 1010 10 16.09344 0 0
10:55 pm 22:55 Clear 67 19.7 59 14.9 74 74 Calm 29.83 1010 10 16.09344 0 0
11:15 pm 23:15 Clear 68 20.2 58 14.5 70 70 Calm 29.83 1010 10 16.09344 0 0
11:35 pm 23:35 Clear 68 20.2 58 14.3 69 69 Calm 29.83 1010 10 16.09344 0 0
11:55 pm 23:55 Clear 68 20 58 14.2 69 69 Calm 29.83 1010 10 16.09344 0 0

Powered by AerisWeather